• en Suisse
  • Liste des pays
  • À 7 jours
  • Température de l'eau
  • Carte satellitaire
  • Carte météo
  • Widgets météo
  • user-avatar
    Se connecter

    Météo par heure à Rivas

    Ce jour, 15 Octobre, Lundi

    Heure Température Précipitation Vent Pression Humidité
    00:00 +26°C° 0 mm 3 m/s 751 mmHg 93%
    01:00 +26°C° 0.4 mm 3 m/s 751 mmHg 93%
    02:00 +26°C° 0.4 mm 3 m/s 751 mmHg 93%
    03:00 +26°C° 0.4 mm 3 m/s 751 mmHg 93%
    04:00 +26°C° 0.7 mm 3 m/s 751 mmHg 94%
    05:00 +26°C° 0.7 mm 3 m/s 751 mmHg 94%
    06:00 +26°C° 0.7 mm 3 m/s 751 mmHg 94%
    07:00 +27°C° 1 mm 3 m/s 751 mmHg 90%
    08:00 +28°C° 1 mm 3 m/s 752 mmHg 87%
    09:00 +29°C° 1 mm 3 m/s 752 mmHg 84%
    10:00 +30°C° 0.9 mm 3 m/s 751 mmHg 83%
    11:00 +30°C° 0.9 mm 4 m/s 751 mmHg 83%
    12:00 +30°C° 0.9 mm 4 m/s 751 mmHg 83%
    13:00 +30°C° 0.9 mm 4 m/s 750 mmHg 83%
    14:00 +30°C° 0.9 mm 4 m/s 750 mmHg 84%
    15:00 +30°C° 0.9 mm 5 m/s 749 mmHg 84%
    16:00 +29°C° 1.3 mm 4 m/s 750 mmHg 86%
    17:00 +28°C° 1.3 mm 4 m/s 750 mmHg 89%
    18:00 +27°C° 1.3 mm 4 m/s 750 mmHg 91%
    19:00 +27°C° 1 mm 3 m/s 751 mmHg 92%
    20:00 +27°C° 1 mm 3 m/s 751 mmHg 92%
    21:00 +26°C° 1 mm 3 m/s 751 mmHg 93%
    22:00 +26°C° 0.9 mm 3 m/s 751 mmHg 93%
    23:00 +26°C° 0.9 mm 3 m/s 751 mmHg 93%

    Demain, 16 Octobre, Mardi

    Heure Température Précipitation Vent Pression Humidité
    00:00 +26°C° 0.9 mm 3 m/s 751 mmHg 94%
    01:00 +26°C° 0.8 mm 3 m/s 751 mmHg 94%
    02:00 +26°C° 0.8 mm 3 m/s 750 mmHg 94%
    03:00 +26°C° 0.8 mm 3 m/s 750 mmHg 94%
    04:00 +26°C° 0.7 mm 3 m/s 750 mmHg 94%
    05:00 +26°C° 0.7 mm 3 m/s 750 mmHg 93%
    06:00 +26°C° 0.7 mm 3 m/s 751 mmHg 93%
    07:00 +27°C° 0.9 mm 3 m/s 751 mmHg 91%
    08:00 +27°C° 0.9 mm 3 m/s 752 mmHg 90%
    09:00 +28°C° 0.9 mm 4 m/s 752 mmHg 88%
    10:00 +28°C° 1.5 mm 3 m/s 752 mmHg 88%
    11:00 +28°C° 1.5 mm 3 m/s 751 mmHg 88%
    12:00 +28°C° 1.5 mm 3 m/s 751 mmHg 88%
    13:00 +28°C° 2.1 mm 3 m/s 750 mmHg 90%
    14:00 +28°C° 2.1 mm 2 m/s 750 mmHg 92%
    15:00 +27°C° 2.1 mm 2 m/s 749 mmHg 94%
    16:00 +27°C° 2.6 mm 2 m/s 749 mmHg 94%
    17:00 +27°C° 2.6 mm 1 m/s 750 mmHg 95%
    18:00 +26°C° 2.6 mm 1 m/s 750 mmHg 96%
    19:00 +26°C° 2.9 mm 1 m/s 750 mmHg 96%
    20:00 +26°C° 2.9 mm 2 m/s 751 mmHg 96%
    21:00 +26°C° 2.9 mm 2 m/s 752 mmHg 95%
    22:00 +26°C° 3.1 mm 2 m/s 752 mmHg 95%
    23:00 +26°C° 3.1 mm 2 m/s 751 mmHg 95%

    Après-demain, 17 Octobre, Mercredi

    Heure Température Précipitation Vent Pression Humidité
    00:00 +26°C° 3.1 mm 3 m/s 751 mmHg 95%
    01:00 +26°C° 3.3 mm 3 m/s 751 mmHg 95%
    02:00 +26°C° 3.3 mm 3 m/s 750 mmHg 95%
    03:00 +26°C° 3.3 mm 3 m/s 750 mmHg 95%
    04:00 +26°C° 5.2 mm 3 m/s 750 mmHg 95%
    05:00 +26°C° 5.2 mm 3 m/s 750 mmHg 95%
    06:00 +26°C° 5.2 mm 4 m/s 751 mmHg 95%
    07:00 +26°C° 2.8 mm 4 m/s 751 mmHg 95%
    08:00 +26°C° 2.8 mm 4 m/s 752 mmHg 94%
    09:00 +27°C° 2.8 mm 4 m/s 752 mmHg 93%
    10:00 +27°C° 0.7 mm 4 m/s 752 mmHg 92%
    11:00 +28°C° 0.7 mm 4 m/s 751 mmHg 90%
    12:00 +28°C° 0.7 mm 4 m/s 751 mmHg 88%
    13:00 +28°C° 0.3 mm 3 m/s 750 mmHg 88%
    14:00 +28°C° 0.3 mm 3 m/s 750 mmHg 87%
    15:00 +28°C° 0.3 mm 2 m/s 749 mmHg 87%
    16:00 +28°C° 0.3 mm 2 m/s 749 mmHg 89%
    17:00 +27°C° 0.3 mm 2 m/s 750 mmHg 91%
    18:00 +26°C° 0.3 mm 1 m/s 750 mmHg 93%
    19:00 +26°C° 0.6 mm 1 m/s 751 mmHg 93%
    20:00 +26°C° 0.6 mm 1 m/s 751 mmHg 94%
    21:00 +26°C° 0.6 mm 1 m/s 752 mmHg 94%
    22:00 +26°C° 0.8 mm 1 m/s 752 mmHg 94%
    23:00 +26°C° 0.8 mm 1 m/s 751 mmHg 95%

    18 Octobre, Jeudi

    Heure Température Précipitation Vent Pression Humidité
    00:00 +24°C° 0.8 mm 0 m/s 751 mmHg 95%
    01:00 +26°C° 0.6 mm 1 m/s 751 mmHg 95%
    02:00 +26°C° 0.6 mm 1 m/s 750 mmHg 95%
    03:00 +26°C° 0.6 mm 1 m/s 750 mmHg 95%
    04:00 +26°C° 0.2 mm 1 m/s 750 mmHg 95%
    05:00 +26°C° 0.2 mm 1 m/s 750 mmHg 95%
    06:00 +26°C° 0.2 mm 1 m/s 751 mmHg 95%
    07:00 +26°C° 0.9 mm 1 m/s 751 mmHg 92%
    08:00 +27°C° 0.9 mm 2 m/s 752 mmHg 89%
    09:00 +28°C° 0.9 mm 2 m/s 753 mmHg 86%
    10:00 +28°C° 1.2 mm 2 m/s 752 mmHg 87%
    11:00 +28°C° 1.2 mm 2 m/s 752 mmHg 89%
    12:00 +28°C° 1.2 mm 2 m/s 751 mmHg 90%
    13:00 +28°C° 1.7 mm 2 m/s 751 mmHg 88%
    14:00 +28°C° 1.7 mm 2 m/s 750 mmHg 87%
    15:00 +29°C° 1.7 mm 3 m/s 750 mmHg 86%
    16:00 +28°C° 1.5 mm 3 m/s 750 mmHg 88%
    17:00 +27°C° 1.5 mm 3 m/s 751 mmHg 90%
    18:00 +26°C° 1.5 mm 3 m/s 751 mmHg 91%
    19:00 +26°C° 0.4 mm 3 m/s 752 mmHg 92%
    20:00 +26°C° 0.4 mm 3 m/s 752 mmHg 92%
    21:00 +26°C° 0.4 mm 4 m/s 753 mmHg 92%
    22:00 +26°C° 0.2 mm 3 m/s 752 mmHg 92%
    23:00 +26°C° 0.2 mm 3 m/s 752 mmHg 92%

    19 Octobre, Vendredi

    Heure Température Précipitation Vent Pression Humidité
    00:00 +25°C° 0.2 mm 3 m/s 752 mmHg 93%
    01:00 +25°C° 0 mm 3 m/s 751 mmHg 93%
    02:00 +25°C° 0 mm 3 m/s 751 mmHg 92%
    03:00 +25°C° 0 mm 3 m/s 750 mmHg 92%
    04:00 +25°C° 0 mm 3 m/s 751 mmHg 92%
    05:00 +25°C° 0 mm 3 m/s 751 mmHg 92%
    06:00 +25°C° 0 mm 4 m/s 752 mmHg 92%
    07:00 +26°C° 0 mm 4 m/s 752 mmHg 88%
    08:00 +28°C° 0 mm 4 m/s 752 mmHg 83%
    09:00 +29°C° 0 mm 5 m/s 753 mmHg 79%
    10:00 +30°C° 0.1 mm 5 m/s 752 mmHg 77%
    11:00 +32°C° 0.1 mm 4 m/s 751 mmHg 74%
    12:00 +32°C° 0.1 mm 4 m/s 751 mmHg 72%
    13:00 +32°C° 0.9 mm 4 m/s 750 mmHg 74%
    14:00 +32°C° 0.9 mm 4 m/s 749 mmHg 77%
    15:00 +32°C° 0.9 mm 4 m/s 749 mmHg 79%
    16:00 +30°C° 1 mm 4 m/s 749 mmHg 82%
    17:00 +29°C° 1 mm 4 m/s 750 mmHg 85%
    18:00 +28°C° 1 mm 4 m/s 750 mmHg 87%
    19:00 +27°C° 0.2 mm 4 m/s 751 mmHg 88%
    20:00 +27°C° 0.2 mm 4 m/s 751 mmHg 89%
    21:00 +27°C° 0.2 mm 4 m/s 752 mmHg 89%
    22:00 +27°C° 0.2 mm 4 m/s 752 mmHg 90%
    23:00 +27°C° 0.2 mm 4 m/s 751 mmHg 91%

    20 Octobre, Samedi

    Heure Température Précipitation Vent Pression Humidité
    00:00 +26°C° 0.2 mm 3 m/s 751 mmHg 91%
    01:00 +26°C° 0.3 mm 3 m/s 751 mmHg 92%
    02:00 +26°C° 0.3 mm 4 m/s 750 mmHg 92%
    03:00 +26°C° 0.3 mm 4 m/s 750 mmHg 93%
    04:00 +26°C° 0.5 mm 4 m/s 750 mmHg 93%
    05:00 +26°C° 0.5 mm 4 m/s 751 mmHg 93%
    06:00 +26°C° 0.5 mm 4 m/s 751 mmHg 93%
    07:00 +27°C° 0.7 mm 4 m/s 752 mmHg 88%
    08:00 +28°C° 0.7 mm 4 m/s 752 mmHg 84%
    09:00 +29°C° 0.7 mm 4 m/s 752 mmHg 80%
    10:00 +30°C° 0.7 mm 4 m/s 751 mmHg 78%
    11:00 +32°C° 0.7 mm 4 m/s 751 mmHg 77%
    12:00 +32°C° 0.7 mm 4 m/s 750 mmHg 75%
    13:00 +30°C° 1.6 mm 4 m/s 749 mmHg 78%
    14:00 +30°C° 1.6 mm 4 m/s 749 mmHg 82%
    15:00 +29°C° 1.6 mm 5 m/s 749 mmHg 85%
    16:00 +28°C° 1.2 mm 5 m/s 749 mmHg 87%
    17:00 +28°C° 1.2 mm 4 m/s 750 mmHg 90%
    18:00 +27°C° 1.2 mm 4 m/s 750 mmHg 92%
    19:00 +27°C° 0.3 mm 4 m/s 750 mmHg 92%
    20:00 +26°C° 0.3 mm 4 m/s 751 mmHg 92%
    21:00 +26°C° 0.3 mm 4 m/s 751 mmHg 92%
    22:00 +26°C° 0.2 mm 4 m/s 751 mmHg 92%
    23:00 +26°C° 0.2 mm 4 m/s 751 mmHg 92%
    Voir plus